El Centro, CA

2:47 PM PDT on April 24, 2017 (GMT -0700)
El Centro Naval Air Facility

Weather History for KNJK - July, 2013

Change the Weather History Date:

Friday, July 5, 2013

  Actual Average Record
Temperature  
Mean Temperature 92 °F -  
Max Temperature 107 °F 102 °F 113 °F (2007)
Min Temperature 79 °F 75 °F 71 °F (2000)
Cooling Degree Days 28    
Growing Degree Days 42 (Base 50)    
Moisture  
Dew Point 64 °F    
Average Humidity 46    
Maximum Humidity 79    
Minimum Humidity 16    
Precipitation  
Precipitation 0.00 in - - ()
Sea Level Pressure  
Sea Level Pressure 29.69 in    
Wind  
Wind Speed 6 mph (ESE)    
Max Wind Speed 14 mph    
Max Gust Speed -    
Visibility 10 miles    
Events      
Averages and records for this station are not official NWS values.
T = Trace of Precipitation, MM = Missing Value Source: NWS Daily Summary

Daily Weather History Graph

Daily Weather History Graph

Search for Another Location

Airport or City:

Trip Planner

Search our weather history database for the weather conditions in past years. The results will help you decide how hot, cold, wet, or windy it might be!

Date:

Astronomy

Jul. 05, 2013 Rise Set
Actual Time 5:40 AM PDT 7:54 PM PDT
Civil Twilight 5:11 AM PDT 8:22 PM PDT
Nautical Twilight 4:36 AM PDT 8:57 PM PDT
Astronomical Twilight 3:59 AM PDT 9:35 PM PDT
Moon 3:39 AM PDT (7/5) 5:55 PM PDT (7/5)
Length of Visible Light 15h 11m
Length of Day
14h 14m
Waning Crescent, 6% of the Moon is Illuminated
Jul 5
Waning Crescent
Jul 8
New
Jul 15
First Quarter
Jul 22
Full
Jul 29
Last Quarter

Hourly Weather History & Observations

Time (PDT) Temp. Heat Index Dew Point Humidity Pressure Visibility Wind Dir Wind Speed Gust Speed Precip Events Conditions
12:56 AM 82.9 °F 87.5 °F 71.1 °F 67% 29.67 in 10.0 mi SE 5.8 mph - N/A   Unknown
1:56 AM 79.0 °F - 72.0 °F 79% 29.67 in 10.0 mi East 5.8 mph - N/A   Unknown
2:56 AM 81.0 °F 85.8 °F 73.0 °F 77% 29.68 in 10.0 mi SE 8.1 mph - N/A   Unknown
3:56 AM 81.0 °F 85.2 °F 72.0 °F 74% 29.67 in 10.0 mi SE 8.1 mph - N/A   Unknown
4:56 AM 79.0 °F - 70.0 °F 74% 29.68 in 10.0 mi East 3.5 mph - N/A   Unknown
5:56 AM 79.0 °F - 68.0 °F 69% 29.70 in 10.0 mi Calm Calm - N/A   Mostly Cloudy
6:56 AM 81.0 °F 84.4 °F 70.0 °F 69% 29.72 in 10.0 mi North 4.6 mph - N/A   Mostly Cloudy
7:56 AM 82.9 °F 87.5 °F 71.1 °F 67% 29.74 in 10.0 mi NE 4.6 mph - N/A   Mostly Cloudy
8:56 AM 84.9 °F 90.1 °F 71.1 °F 63% 29.75 in 10.0 mi NE 4.6 mph - N/A   Mostly Cloudy
9:56 AM 91.0 °F 97.6 °F 71.1 °F 52% 29.75 in 10.0 mi Variable 3.5 mph - N/A   Mostly Cloudy
10:56 AM 93.9 °F 100.3 °F 70.0 °F 46% 29.75 in 10.0 mi ESE 3.5 mph - N/A   Mostly Cloudy
11:56 AM 98.1 °F 104.4 °F 69.1 °F 39% 29.74 in 10.0 mi SE 5.8 mph - N/A   Scattered Clouds
12:56 PM 100.9 °F 103.3 °F 63.0 °F 29% 29.73 in 10.0 mi East 8.1 mph - N/A   Scattered Clouds
1:56 PM 102.9 °F 103.0 °F 57.9 °F 23% 29.70 in 10.0 mi SE 8.1 mph - N/A   Scattered Clouds
2:56 PM 104.0 °F - 50.0 °F 16% 29.68 in 10.0 mi ESE 5.8 mph - N/A   Scattered Clouds
3:56 PM 106.0 °F 104.5 °F 54.0 °F 18% 29.65 in 10.0 mi SSE 11.5 mph - N/A   Scattered Clouds
4:56 PM 106.0 °F 105.1 °F 55.9 °F 19% 29.63 in 10.0 mi ESE 10.4 mph - N/A   Partly Cloudy
5:56 PM 102.9 °F 101.4 °F 55.0 °F 20% 29.62 in 10.0 mi SE 13.8 mph - N/A   Partly Cloudy
6:56 PM 99.0 °F 98.6 °F 59.0 °F 26% 29.62 in 10.0 mi SE 9.2 mph - N/A   Unknown
7:56 PM 93.0 °F 91.1 °F 55.0 °F 28% 29.63 in 10.0 mi SE 8.1 mph - N/A   Unknown
8:56 PM 90.0 °F 87.9 °F 55.0 °F 30% 29.64 in 10.0 mi ESE 4.6 mph - N/A   Unknown
9:56 PM 88.0 °F 86.1 °F 55.0 °F 32% 29.66 in 10.0 mi SE 3.5 mph - N/A   Unknown
10:56 PM 86.0 °F 85.0 °F 57.9 °F 38% 29.68 in 10.0 mi SE 6.9 mph - N/A   Unknown
11:56 PM 84.0 °F 83.5 °F 57.9 °F 41% 29.69 in 10.0 mi SE 5.8 mph - N/A   Unknown